This demonstration page uses our WeatherBlox Daily Observations layout. Learn more.

Left ArrowRight Arrow

34.02893, -84.19858

Hourly Observations for March 15, 2016

Temp ( °F °C ) Dew Point ( °F °C ) Humidity (%) Winds ( mph kmh ) Pressure ( in mb ) Visibility ( mi km ) Precip ( " mm )
12:53 am 00:53 Clear 64 17.8 53 11.7 68 68 WNW 3 6 29.83 1010 10 16 0.00 0.00
1:53 am 01:53 Clear 57 13.9 52 11.1 83 83 Calm 29.84 1011 10 16 0.00 0.00
2:53 am 02:53 Clear 57 13.9 53 11.7 87 87 Calm 29.85 1011 10 16 0.00 0.00
3:53 am 03:53 Clear 53 11.7 51 10.6 93 93 Calm 29.85 1011 10 16 0.00 0.00
4:53 am 04:53 Clear 53 11.7 51 10.6 93 93 Calm 29.85 1011 10 16 0.00 0.00
5:53 am 05:53 Clear 52 11.1 51 10.6 97 97 Calm 29.86 1011 9 14 0.00 0.00
6:53 am 06:53 Clear 50 10 49 9.4 96 96 Calm 29.88 1012 9 14 0.00 0.00
7:53 am 07:53 Sunny 51 10.6 50 10 96 96 Calm 29.89 1012 8 13 0.00 0.00
8:53 am 08:53 Sunny 57 13.9 54 12.2 90 90 Calm 29.90 1012 8 13 0.00 0.00
9:05 am 09:05 Mostly Sunny 58 14.4 55 12.8 90 90 Calm 29.91 1013 10 16 0.00 0.00
9:53 am 09:53 Sunny 63 17.2 56 13.3 78 78 SSW 6 9 29.92 1013 10 16 0.00 0.00
10:53 am 10:53 Sunny 70 21.1 56 13.3 61 61 S 6 9 29.91 1013 10 16 0.00 0.00
11:53 am 11:53 Sunny 75 23.9 53 11.7 46 46 SSW 8 13 29.91 1013 10 16 0.00 0.00
12:53 pm 12:53 Sunny 77 25 55 12.8 47 47 S 8 13 29.88 1012 10 16 0.00 0.00
1:53 pm 13:53 Sunny 80 26.7 55 12.8 42 42 SSW 12 19 29.87 1012 10 16 0.00 0.00
2:53 pm 14:53 Sunny 82 27.8 54 12.2 38 38 SSW 15 24 29.84 1011 10 16 0.00 0.00
3:53 pm 15:53 Sunny 84 28.9 52 11.1 33 33 SSW 14 22 29.82 1010 10 16 0.00 0.00
4:53 pm 16:53 Sunny 84 28.9 49 9.4 30 30 SW 18 30 29.80 1009 10 16 0.00 0.00
5:53 pm 17:53 Sunny 83 28.3 51 10.6 33 33 SW 13 20 29.80 1009 10 16 0.00 0.00
6:53 pm 18:53 Sunny 81 27.2 48 8.9 32 32 S 10 17 29.81 1010 10 16 0.00 0.00
7:53 pm 19:53 Clear 76 24.4 47 8.3 36 36 SSW 8 13 29.83 1010 10 16 0.00 0.00
8:53 pm 20:53 Clear 74 23.3 46 7.8 37 37 S 6 9 29.83 1010 10 16 0.00 0.00
9:53 pm 21:53 Clear 72 22.2 47 8.3 41 41 S 6 9 29.83 1010 10 16 0.00 0.00
10:53 pm 22:53 Clear 71 21.7 47 8.3 42 42 S 9 15 29.83 1010 10 16 0.00 0.00
11:53 pm 23:53 Clear 72 22.2 50 10 46 46 SSW 14 22 29.82 1010 10 16 0.00 0.00

Powered by AerisWeather